CST,Max TemperatureF,Mean TemperatureF,Min TemperatureF,Max Dew PointF,MeanDew PointF,Min DewpointF,Max Humidity, Mean Humidity, Min Humidity, Max Sea Level PressureIn, Mean Sea Level PressureIn, Min Sea Level PressureIn, Max VisibilityMiles, Mean VisibilityMiles, Min VisibilityMiles, Max Wind SpeedMPH, Mean Wind SpeedMPH, Max Gust SpeedMPH,PrecipitationIn, CloudCover, Events, WindDirDegrees
2011-11-1,55,45,35,39,30,22,85,60,35,30.17,29.96,29.73,10,10,10,21,11,26,0.00,4,,295
2011-11-2,50,37,24,29,23,19,85,57,29,30.32,30.27,30.18,10,10,10,17,10,23,0.00,1,,279
2011-11-3,56,38,20,24,19,17,81,52,22,30.24,30.14,30.02,10,10,10,25,12,30,0.00,4,,187
2011-11-4,59,47,35,24,20,19,52,38,23,30.04,29.87,29.75,10,10,10,33,19,46,0.00,4,,176
2011-11-5,57,49,40,40,33,26,67,57,47,29.74,29.57,29.40,10,10,10,28,17,35,0.00,6,,157
2011-11-6,52,43,34,42,33,24,77,66,54,29.68,29.42,29.27,10,10,10,35,23,44,T,7,Rain,221
2011-11-7,44,32,20,27,24,16,84,62,40,30.21,30.02,29.73,10,10,8,28,13,36,0.00,3,,268
2011-11-8,53,34,15,25,19,12,88,59,30,30.20,30.13,30.08,10,10,10,25,9,31,0.00,0,,203
2011-11-9,40,30,20,29,25,19,84,69,54,30.16,30.12,30.09,10,9,2,26,15,32,T,5,Snow,301
2011-11-10,40,31,21,23,20,17,88,64,40,30.17,30.03,29.71,10,10,10,21,11,28,0.00,5,,267
2011-11-11,55,40,24,33,25,18,85,65,44,29.68,29.54,29.46,10,10,8,22,8,29,0.00,4,,225
2011-11-12,49,35,20,28,24,17,92,66,39,29.45,29.28,29.11,10,10,9,15,5,20,0.00,5,,190
2011-11-13,41,36,30,29,28,25,85,72,59,29.28,29.25,29.16,10,10,10,22,10,26,0.00,7,,260
2011-11-14,46,34,21,30,26,20,92,73,53,29.50,29.37,29.28,10,10,10,21,9,25,0.00,4,,241
2011-11-15,33,25,16,30,23,14,92,83,74,29.89,29.63,29.49,10,7,0,26,10,31,0.07,6,Fog-Snow,309
2011-11-16,24,18,12,16,11,7,88,78,68,30.19,30.06,29.92,10,10,10,24,13,30,T,3,,282
2011-11-17,24,14,3,15,9,-1,88,75,62,30.19,30.05,29.75,10,10,10,15,7,21,0.00,5,,149
2011-11-18,29,23,16,19,16,14,92,80,68,29.89,29.74,29.64,10,10,10,20,8,24,0.00,6,,7
2011-11-19,19,14,8,12,6,2,88,79,70,30.36,30.11,29.89,10,10,6,25,16,30,T,7,Snow,348
2011-11-20,20,13,6,8,5,1,88,75,61,30.41,30.31,30.16,10,10,10,17,7,22,0.00,4,,191
2011-11-21,31,19,7,19,13,4,88,73,58,30.25,30.18,30.12,10,10,10,16,7,21,0.00,3,,162
2011-11-22,42,31,19,30,26,16,92,79,65,30.12,30.00,29.91,10,6,2,23,14,29,0.00,5,,185
2011-11-23,58,42,25,35,28,22,92,68,43,29.94,29.84,29.70,10,10,7,16,11,21,0.00,4,,185
2011-11-24,56,42,28,34,29,23,85,65,45,29.72,29.66,29.62,10,10,10,16,7,20,0.00,7,,187
2011-11-25,42,36,29,32,30,28,92,80,67,29.81,29.75,29.69,10,10,10,17,10,21,0.00,7,,12
2011-11-26,35,33,30,34,29,24,100,88,75,30.30,30.05,29.84,10,7,1,24,16,30,0.05,8,Rain-Snow,323
2011-11-27,34,24,14,25,19,11,88,75,61,30.35,30.22,29.95,10,10,10,20,9,25,0.00,2,,242
2011-11-28,51,34,16,35,22,12,84,67,50,30.40,30.06,29.81,10,10,10,25,14,32,0.00,3,,268
2011-11-29,41,25,9,19,15,7,92,65,38,30.40,30.22,29.94,10,10,10,20,9,24,0.00,2,,207
2011-11-30,34,28,21,25,21,9,78,64,50,30.39,30.06,29.91,10,10,10,23,12,29,0.00,7,,351